902  
SXUS52 KTAE 250716  
OSOTAE  
OSOTAE  
NORTH FLORIDA/SOUTH ALABAMA/SOUTHWEST GEORGIA WEATHER ROUNDUP  
NATIONAL WEATHER SERVICE TALLAHASSEE FLORIDA  
300 AM EDT MON OCT 25 2021  
 
NOTE: "FAIR" INDICATES FEW OR NO CLOUDS BELOW 12,000 FEET WITH NO  
SIGNIFICANT WEATHER AND/OR OBSTRUCTIONS TO VISIBILITY.  
 
!FLZ017-115-028-034-025-250800   
..NORTH FLORIDA
 
 
 
CITY SKY/WX TMP DP RH WIND PRES REMARKS  
TALL INTL ARPT CLOUDY 71 69 93 E6 29.97F  
FSU LOVE BLDG N/A 70 68 94 E5 N/A  
APALACHICOLA CLOUDY 71 71 100 NE6 29.94F  
PERRY NOT AVBL  
CROSS CITY CLOUDY 72 72 100 NE5 29.97F  
JACKSONVILLE CLOUDY 73 73 100 SE3 29.97S  

 
 
!FLZ112-006-005-002-011-250800   
..FLORIDA PANHANDLE
 
 
 
CITY SKY/WX TMP DP RH WIND PRES REMARKS  
MARIANNA CLOUDY 68 66 93 CALM 29.97F  
BONIFAY CLOUDY 68 66 93 CALM 29.97F  
PANAMA CITY NW LGT RAIN 69 69 100 NE5 29.95F  
TYNDALL AFB MOCLDY 70 68 94 E6 29.94  
TYND DRONE APT CLOUDY 70 70 100 NE8 29.92  
DE FUNIAK SPR NOT AVBL  
EGLIN AFB CLOUDY 69 67 92 E7 29.94  
DESTIN CLOUDY 71 69 93 E7 29.95F  
HURLBURT CLOUDY 70 68 94 E8 29.94  
CRESTVIEW NOT AVBL  
PENSACOLA CLOUDY 72 70 93 E8 29.94S  

 
 
!ALZ063-066-250800   
..SOUTH ALABAMA
 
 
 
CITY SKY/WX TMP DP RH WIND PRES REMARKS  
DOTHAN CLOUDY 68 65 90 E5 30.01F  
OZARK CAIRNS PTCLDY 68 64 87 E3 29.96F  
FT RUCKER HELI CLOUDY 68 64 88 CALM 29.96F  
RUCKER HELI 3 MOCLDY 68 65 89 SE3 29.96F  
RUCKER HELI 2 MOCLDY 68 65 89 SE3 29.96F  
FLORALA APT CLOUDY 69 65 86 CALM 29.99F  
ANDALUSIA CLOUDY 72 65 78 SE3 29.96F  
TROY CLOUDY 69 61 75 SE6 29.97F  
EUFALA CLOUDY 68 62 81 SE3 29.98F  
MOBILE CLOUDY 70 69 97 E6 29.95S  

 
 
!GAZ120>161-250800   
..SOUTHWEST AND SOUTH CENTRAL GEORGIA
 
 
 
CITY SKY/WX TMP DP RH WIND PRES REMARKS  
THOMASVILLE RAIN 64 64 100 CALM 30.01F  
BAINBRIDGE NOT AVBL  
MOODY AFB CLOUDY 66 64 94 CALM 29.98F  
VALDOSTA LGT RAIN 69 67 93 CALM 29.99F  
MOULTRIE RAIN 64 63 94 SE8 30.00F  
BLAKELY HVY RAIN 64 63 94 CALM 30.00S  
ALBANY LGT RAIN 69 63 81 NE5 30.00F  
TIFTON LGT RAIN 67 64 88 CALM 29.99F  
FITZGERALD FAIR 66 64 93 CALM 30.00F  
CORDELE PTSUNNY 67 60 79 SE3 30.02S  
AMERICUS N/A 68 61 77 SE6 30.02F  
HOMERVILLE HVY RAIN 68 65 92 S8 30.01R  

 
 
!GMZ750-755-770-775-250800   
..COASTAL AND BUOY OBS
 
 
 
STATION/POSITION TIME TEMP WIND PRES VSBY WAVE  
AIR SEA DIR/SP/G HT/PER  
(UTC) (F) (DEG/KT/KT) (MB) (MI) (FT/S)  
KEATON BEACH NOT AVBL  
CEDAR KEY 0700 75 170/ 15/ 16 1014.8F  
C TOWER 0700 77 150/ 11/ 12 1013.8F  
APALACHICOLA BUO 0650 81 170/ 12/ 14 1012.8F 3/ 5  
PANAMA CITY BUOY 0650 80 200/ 16/ 17 1013.3F 4/ 6  
MOBILE BUOY 0650 79 80 190/ 10/ 12 1013.0F 3/ 6  
ORANGE BCH AL BU 0650 76 79 90/ 14/ 16 N/A  

 
 
 
CLICK HERE TO GO TO PREVIOUS BULLETINS.

The Nexlab FL Page
The Nexlab GA Page
The Nexlab AL Page Main Text Page